Location: Maiden
(35.5760°N, 81.2120°W)
Time: 03:30:32
(UTC-04:00)

Cosmos 1656 - Pass Details

Date: 02 August 2020
Orbit: 799 x 848 km, 71.1° (Epoch: 11 August)

Event Time Altitude Azimuth Distance (km) Brightness Sun altitude
Rises 22:28:28 0° 347° (NNW) 3,323 7.7 -21.6°
Reaches altitude 10° 22:31:04 10° 356° (N) 2,394 6.7 -22.0°
Maximum altitude 22:36:06 36° 63° (ENE) 1,259 4.4 -22.7°
Enters shadow 22:36:45 35° 78° (ENE) 1,287 4.3 -22.8°
